Location: Allison's Woods
(35.8809°N, 80.8140°W)
Time: 12:34:04
(UTC-04:00)

Iridium 39 - Visible Passes

Search period start: 20 April 2018 00:00
Search period end: 30 April 2018 00:00
Orbit: 724 x 752 km, 86.4° (Epoch: 20 April)

Date Brightness Start Highest point End Pass type
(mag) Time Alt. Az. Time Alt. Az. Time Alt. Az.
20 Apr 8.0 03:14:12 21° ENE 03:14:12 21° ENE 03:17:22 10° NE visible
20 Apr 6.7 04:53:51 32° WNW 04:53:51 32° WNW 04:57:47 10° NNW visible
21 Apr 6.2 04:08:53 61° N 04:08:53 61° N 04:12:58 10° N visible
22 Apr 7.5 03:23:54 31° ENE 03:23:54 31° ENE 03:27:22 10° NNE visible
22 Apr 7.4 05:03:33 20° WNW 05:03:33 20° WNW 05:06:31 10° NNW visible
23 Apr 8.6 02:38:55 13° ENE 02:38:55 13° ENE 02:40:25 10° NE visible
23 Apr 6.6 04:18:34 43° NW 04:18:34 43° NW 04:22:16 10° N visible
24 Apr 7.0 03:33:33 42° NE 03:33:33 42° NE 03:37:04 10° N visible
24 Apr 7.9 05:13:12 12° WNW 05:13:12 12° WNW 05:14:30 10° NW visible
25 Apr 8.1 02:48:32 20° ENE 02:48:32 20° ENE 02:51:00 10° NNE visible
25 Apr 7.1 04:28:10 28° NW 04:28:10 28° NW 04:31:18 10° NNW visible
26 Apr 6.8 03:43:09 44° N 03:43:09 44° N 03:46:32 10° N visible
27 Apr 7.7 02:58:06 28° NE 02:58:06 28° NE 03:00:58 10° NNE visible
27 Apr 7.7 04:37:45 18° WNW 04:37:45 18° WNW 04:40:00 10° NNW visible
28 Apr 8.6 02:13:04 13° ENE 02:13:04 13° ENE 02:14:08 10° NE visible
28 Apr 7.0 03:52:42 34° NNW 03:52:42 34° NNW 03:55:48 10° N visible
29 Apr 7.3 03:07:39 35° NNE 03:07:39 35° NNE 03:10:39 10° N visible
29 Apr 8.1 04:47:17 11° WNW 04:47:17 11° WNW 04:47:53 10° NW visible
